Location: Unspecified
(47.4992°N, 121.7766°W)
Time: 16:38:23
(UTC-08:00)

ISS - Visible Passes

Search period start: 22 January 2019 00:00
Search period end: 01 February 2019 00:00
Orbit: 404 x 411 km, 51.6° (Epoch: 23 January)

Date Brightness Start Highest point End Pass type
(mag) Time Alt. Az. Time Alt. Az. Time Alt. Az.
22 Jan -1.6 18:11:39 10° SSE 18:13:20 13° SE 18:13:42 13° SE visible
22 Jan -0.6 19:46:05 10° WSW 19:46:26 12° SW 19:46:26 12° SW visible
23 Jan -2.9 18:54:56 10° SW 18:57:28 39° S 18:57:28 39° S visible
24 Jan -2.5 18:04:01 10° SSW 18:06:51 27° SE 18:08:25 19° E visible
24 Jan -1.2 19:39:56 10° WSW 19:41:08 21° W 19:41:08 21° W visible
25 Jan -4.0 18:48:31 10° WSW 18:51:50 87° SSE 18:52:01 79° E visible
26 Jan -3.5 17:57:15 10° SW 18:00:29 56° SSE 18:02:49 17° ENE visible
26 Jan -1.5 19:33:54 10° W 19:35:32 25° WNW 19:35:32 25° WNW visible
27 Jan -3.5 18:42:22 10° W 18:45:37 57° NNW 18:46:18 45° NNE visible
28 Jan -3.8 17:50:52 10° WSW 17:54:11 79° NNW 17:57:00 13° ENE visible
28 Jan -1.8 19:27:51 10° WNW 19:29:43 26° NW 19:29:43 26° NW visible
29 Jan -3.0 18:36:18 10° W 18:39:27 42° N 18:40:24 32° NE visible
30 Jan -3.3 17:44:42 10° W 17:47:56 51° NNW 17:51:04 11° ENE visible
30 Jan -2.1 19:21:42 10° WNW 19:23:47 30° NW 19:23:47 30° NW visible
31 Jan -2.9 18:30:09 10° WNW 18:33:17 38° N 18:34:27 28° NE visible
31 Jan -0.4 20:06:52 10° WNW 20:07:10 12° WNW 20:07:10 12° WNW visible
